Delta, CO

1:45 AM MDT on April 30, 2017 (GMT -0600)
Delta

Weather History for KAJZ - October, 2014

Change the Weather History Date:

Tuesday, October 14, 2014

  Actual Average (KMTJ) Record (KMTJ)
Temperature  
Mean Temperature 52 °F -  
Max Temperature 69 °F 65 °F 79 °F (2015)
Min Temperature 34 °F 33 °F 25 °F (1997)
Degree Days  
Heating Degree Days 14    
Growing Degree Days 2 (Base 50)    
Moisture  
Dew Point 30 °F    
Average Humidity 52    
Maximum Humidity 79    
Minimum Humidity 20    
Precipitation  
Precipitation 0.00 in - - ()
Sea Level Pressure  
Sea Level Pressure 30.29 in    
Wind  
Wind Speed 4 mph (ENE)    
Max Wind Speed 8 mph    
Max Gust Speed -    
Visibility 10 miles    
Events      
Averages and records for this station are not official NWS values.
T = Trace of Precipitation, MM = Missing Value Source: NWS Daily Summary

Daily Weather History Graph

Daily Weather History Graph

Search for Another Location

Airport or City:

Trip Planner

Search our weather history database for the weather conditions in past years. The results will help you decide how hot, cold, wet, or windy it might be!

Date:

Astronomy

Oct. 14, 2014 Rise Set
Actual Time 7:20 AM MDT 6:35 PM MDT
Civil Twilight 6:53 AM MDT 7:01 PM MDT
Nautical Twilight 6:22 AM MDT 7:32 PM MDT
Astronomical Twilight 5:52 AM MDT 8:03 PM MDT
Moon 11:45 PM MDT (10/14) 1:21 PM MDT (10/14)
Length of Visible Light 12h 08m
Length of Day
11h 14m
Waning Gibbous, 60% of the Moon is Illuminated
Oct 14
Waning Gibbous
Oct 15
Last Quarter
Oct 23
New
Oct 30
First Quarter
Nov 6
Full

Hourly Weather History & Observations

Time (MDT) Temp. Windchill Dew Point Humidity Pressure Visibility Wind Dir Wind Speed Gust Speed Precip Events Conditions
12:15 AM 41.5 °F 36.4 °F 28.8 °F 60% 30.32 in 10.0 mi ENE 8.1 mph - N/A   Clear
12:35 AM 42.3 °F 38.6 °F 29.5 °F 61% 30.32 in 10.0 mi East 5.8 mph - N/A   Clear
12:55 AM 41.0 °F 37.1 °F 30.7 °F 67% 30.33 in 10.0 mi ENE 5.8 mph - N/A   Clear
1:15 AM 39.7 °F 35.6 °F 30.7 °F 70% 30.34 in 10.0 mi NE 5.8 mph - N/A   Clear
1:35 AM 39.6 °F 36.3 °F 30.2 °F 69% 30.34 in 10.0 mi ENE 4.6 mph - N/A   Clear
1:55 AM 38.5 °F 36.1 °F 29.7 °F 71% 30.34 in 10.0 mi East 3.5 mph - N/A   Clear
2:15 AM 39.0 °F 34.8 °F 29.7 °F 69% 30.34 in 10.0 mi ENE 5.8 mph - N/A   Clear
2:35 AM 39.6 °F 34.0 °F 30.2 °F 69% 30.34 in 10.0 mi NE 8.1 mph - N/A   Clear
2:55 AM 39.7 °F 35.6 °F 30.2 °F 69% 30.34 in 10.0 mi NE 5.8 mph - N/A   Clear
3:15 AM 38.1 °F 34.6 °F 29.3 °F 71% 30.34 in 10.0 mi NE 4.6 mph - N/A   Clear
3:35 AM 37.6 °F 34.0 °F 29.8 °F 74% 30.35 in 10.0 mi ENE 4.6 mph - N/A   Clear
3:55 AM 37.4 °F 32.8 °F 30.0 °F 75% 30.35 in 10.0 mi ENE 5.8 mph - N/A   Clear
4:15 AM 36.0 °F 33.3 °F 29.3 °F 77% 30.35 in 10.0 mi ENE 3.5 mph - N/A   Clear
4:35 AM 35.6 °F 29.2 °F 29.3 °F 78% 30.35 in 10.0 mi NNE 8.1 mph - N/A   Clear
4:55 AM 37.0 °F 32.4 °F 29.7 °F 75% 30.35 in 10.0 mi NE 5.8 mph - N/A   Clear
5:15 AM 36.3 °F 33.7 °F 29.3 °F 76% 30.36 in 10.0 mi ENE 3.5 mph - N/A   Clear
5:35 AM 35.4 °F 32.6 °F 29.1 °F 78% 30.37 in 10.0 mi ENE 3.5 mph - N/A   Clear
5:55 AM 35.6 °F 31.7 °F 28.9 °F 77% 30.37 in 10.0 mi NE 4.6 mph - N/A   Clear
6:15 AM 37.0 °F 32.4 °F 29.3 °F 74% 30.37 in 10.0 mi ENE 5.8 mph - N/A   Clear
6:35 AM 35.6 °F 30.7 °F 28.4 °F 75% 30.37 in 10.0 mi ENE 5.8 mph - N/A   Clear
6:55 AM 34.2 °F 31.2 °F 28.2 °F 79% 30.37 in 10.0 mi NE 3.5 mph - N/A   Clear
7:15 AM 34.0 °F - 27.9 °F 78% 30.37 in 10.0 mi Calm Calm - N/A   Clear
7:35 AM 35.2 °F - 28.4 °F 76% 30.37 in 10.0 mi Calm Calm - N/A   Clear
7:55 AM 36.0 °F - 28.9 °F 76% 30.37 in 10.0 mi Calm Calm - N/A   Clear
8:15 AM 37.6 °F - 30.4 °F 75% 30.37 in 10.0 mi Calm Calm - N/A   Clear
8:35 AM 39.7 °F - 29.8 °F 68% 30.38 in 10.0 mi Calm Calm - N/A   Clear
8:55 AM 41.7 °F - 29.8 °F 63% 30.38 in 10.0 mi Calm Calm - N/A   Clear
9:15 AM 43.2 °F - 30.2 °F 60% 30.37 in 10.0 mi Calm Calm - N/A   Clear
9:35 AM 44.4 °F - 30.4 °F 58% 30.37 in 10.0 mi Calm Calm - N/A   Clear
9:55 AM 45.9 °F - 31.3 °F 57% 30.37 in 10.0 mi Calm Calm - N/A   Clear
10:15 AM 47.3 °F - 31.6 °F 55% 30.36 in 10.0 mi Calm Calm - N/A   Clear
10:35 AM 49.3 °F - 31.5 °F 50% 30.35 in 10.0 mi Calm Calm - N/A   Clear
10:55 AM 50.7 °F - 31.1 °F 47% 30.34 in 10.0 mi Calm Calm - N/A   Clear
11:15 AM 52.7 °F - 30.7 °F 43% 30.34 in 10.0 mi ESE 3.5 mph - N/A   Clear
11:35 AM 55.2 °F - 28.8 °F 36% 30.33 in 10.0 mi Calm Calm - N/A   Clear
11:55 AM 56.1 °F - 27.3 °F 33% 30.32 in 10.0 mi Calm Calm - N/A   Clear
12:15 PM 58.5 °F - 27.3 °F 30% 30.30 in 10.0 mi Calm Calm - N/A   Clear
12:35 PM 60.3 °F - 28.4 °F 30% 30.30 in 10.0 mi Calm Calm - N/A   Clear
12:55 PM 61.2 °F - 26.6 °F 27% 30.28 in 10.0 mi WSW 3.5 mph - N/A   Clear
1:15 PM 62.1 °F - 26.1 °F 25% 30.27 in 10.0 mi South 3.5 mph - N/A   Clear
1:35 PM 64.0 °F - 27.7 °F 25% 30.26 in 10.0 mi Calm Calm - N/A   Clear
1:55 PM 64.9 °F - 27.3 °F 24% 30.25 in 10.0 mi Calm Calm - N/A   Clear
2:15 PM 65.3 °F - 26.4 °F 23% 30.25 in 10.0 mi South 3.5 mph - N/A   Clear
2:35 PM 66.7 °F - 27.1 °F 23% 30.23 in 10.0 mi Calm Calm - N/A   Clear
2:55 PM 67.1 °F - 27.0 °F 22% 30.22 in 10.0 mi Calm Calm - N/A   Clear
3:15 PM 68.0 °F - 26.6 °F 21% 30.22 in 10.0 mi South 4.6 mph - N/A   Clear
4:15 PM 68.9 °F - 27.5 °F 21% 30.21 in 10.0 mi SW 3.5 mph - N/A   Clear
4:55 PM 69.3 °F - 27.1 °F 21% 30.19 in 10.0 mi SSW 4.6 mph - N/A   Clear
5:15 PM 69.6 °F - 27.1 °F 20% 30.19 in 10.0 mi SSW 5.8 mph - N/A   Clear
5:35 PM 68.5 °F - 27.3 °F 21% 30.19 in 10.0 mi SSW 5.8 mph - N/A   Clear
5:55 PM 67.8 °F - 27.5 °F 22% 30.19 in 10.0 mi SW 4.6 mph - N/A   Clear
6:15 PM 66.4 °F - 28.8 °F 24% 30.19 in 10.0 mi SW 4.6 mph - N/A   Clear
6:35 PM 64.2 °F - 29.7 °F 27% 30.19 in 10.0 mi Calm Calm - N/A   Clear
6:55 PM 63.5 °F - 29.3 °F 28% 30.19 in 10.0 mi WNW 3.5 mph - N/A   Clear
7:15 PM 60.8 °F - 31.1 °F 33% 30.19 in 10.0 mi Calm Calm - N/A   Clear
7:35 PM 56.1 °F - 33.1 °F 42% 30.19 in 10.0 mi NNE 6.9 mph - N/A   Clear
7:55 PM 55.6 °F - 33.1 °F 43% 30.19 in 10.0 mi NNE 8.1 mph - N/A   Clear
8:15 PM 55.9 °F - 33.1 °F 42% 30.19 in 10.0 mi North 6.9 mph - N/A   Clear
8:35 PM 54.0 °F - 32.9 °F 45% 30.19 in 10.0 mi Calm Calm - N/A   Clear
8:55 PM 51.4 °F - 33.8 °F 51% 30.19 in 10.0 mi Calm Calm - N/A   Clear
9:15 PM 50.7 °F - 34.2 °F 53% 30.20 in 10.0 mi Calm Calm - N/A   Clear
9:35 PM 50.0 °F - 34.2 °F 55% 30.20 in 10.0 mi NNW 4.6 mph - N/A   Clear
9:55 PM 51.6 °F - 34.2 °F 51% 30.20 in 10.0 mi Calm Calm - N/A   Clear
10:15 PM 49.1 °F - 33.8 °F 56% 30.20 in 10.0 mi NE 4.6 mph - N/A   Clear
10:35 PM 47.5 °F - 32.9 °F 57% 30.20 in 10.0 mi NNE 5.8 mph - N/A   Clear
10:55 PM 46.4 °F 45.2 °F 32.5 °F 59% 30.20 in 10.0 mi East 3.5 mph - N/A   Clear
11:15 PM 47.7 °F - 32.9 °F 57% 30.21 in 10.0 mi Calm Calm - N/A   Clear
11:35 PM 44.2 °F 41.8 °F 32.9 °F 64% 30.21 in 10.0 mi NE 4.6 mph - N/A   Clear
11:55 PM 44.2 °F 42.7 °F 32.4 °F 63% 30.21 in 10.0 mi East 3.5 mph - N/A   Clear